Alamogordo, NM

2:12 PM MDT on August 29, 2016 (GMT -0600)
Alamogordo-White Sands Regional

Weather History for KALM - October, 2012

Change the Weather History Date:

Wednesday, October 3, 2012

  Actual Average Record
Temperature  
Mean Temperature 70 °F -  
Max Temperature 89 °F 81 °F 93 °F (2000)
Min Temperature 50 °F 53 °F 39 °F (1961)
Cooling Degree Days 4    
Growing Degree Days 20 (Base 50)    
Moisture  
Dew Point 33 °F    
Average Humidity 31    
Maximum Humidity 62    
Minimum Humidity 9    
Precipitation  
Precipitation 0.00 in - - ()
Sea Level Pressure  
Sea Level Pressure 30.01 in    
Wind  
Wind Speed 5 mph (North)    
Max Wind Speed 15 mph    
Max Gust Speed 20 mph    
Visibility 10 miles    
Events      
Averages and records for this station are not official NWS values.
T = Trace of Precipitation, MM = Missing Value Source: NWS Daily Summary

Daily Weather History Graph

Daily Weather History Graph

Search for Another Location

Airport or City:

Trip Planner

Search our weather history database for the weather conditions in past years. The results will help you decide how hot, cold, wet, or windy it might be!

Date:

Astronomy

Oct. 03, 2012 Rise Set
Actual Time 6:59 AM MDT 6:45 PM MDT
Civil Twilight 6:35 AM MDT 7:09 PM MDT
Nautical Twilight 6:06 AM MDT 7:38 PM MDT
Astronomical Twilight 5:37 AM MDT 8:07 PM MDT
Moon 8:52 PM MDT (10/3) 10:12 AM MDT (10/3)
Length of Visible Light 12h 34m
Length of Day
11h 45m
Waning Gibbous, 88% of the Moon is Illuminated
Oct 3
Waning Gibbous
Oct 8
Last Quarter
Oct 15
New
Oct 21
First Quarter
Oct 29
Full

Hourly Weather History & Observations

Time (MDT) Temp. Dew Point Humidity Pressure Visibility Wind Dir Wind Speed Gust Speed Precip Events Conditions
12:15 AM 57.2 °F 39.2 °F 51% 29.97 in 10.0 mi NE 6.9 mph - N/A   Clear
12:35 AM 59.0 °F 37.4 °F 45% 29.97 in 10.0 mi NE 6.9 mph - N/A   Clear
12:55 AM 60.8 °F 39.2 °F 45% 29.97 in 10.0 mi NNE 6.9 mph - N/A   Clear
1:15 AM 59.0 °F 39.2 °F 48% 29.97 in 10.0 mi NNE 6.9 mph - N/A   Clear
1:35 AM 59.0 °F 39.2 °F 48% 29.97 in 10.0 mi NNE 8.1 mph - N/A   Clear
1:55 AM 59.0 °F 39.2 °F 48% 29.97 in 10.0 mi NNE 8.1 mph - N/A   Clear
2:15 AM 59.0 °F 37.4 °F 45% 29.97 in 10.0 mi NNE 6.9 mph - N/A   Clear
2:35 AM 62.6 °F 37.4 °F 39% 29.97 in 10.0 mi NNE 6.9 mph - N/A   Clear
2:55 AM 64.4 °F 37.4 °F 37% 29.96 in 10.0 mi North 3.5 mph - N/A   Clear
3:15 AM 62.6 °F 37.4 °F 39% 29.97 in 10.0 mi NNE 3.5 mph - N/A   Clear
3:35 AM 62.6 °F 35.6 °F 37% 29.97 in 10.0 mi NNE 4.6 mph - N/A   Clear
3:55 AM 59.0 °F 37.4 °F 45% 29.97 in 10.0 mi NE 6.9 mph - N/A   Clear
4:15 AM 57.2 °F 37.4 °F 48% 29.97 in 10.0 mi East 3.5 mph - N/A   Clear
4:35 AM 53.6 °F 37.4 °F 54% 29.98 in 10.0 mi ESE 4.6 mph - N/A   Clear
4:55 AM 57.2 °F 37.4 °F 48% 29.99 in 10.0 mi Calm Calm - N/A   Clear
5:15 AM 53.6 °F 37.4 °F 54% 29.99 in 10.0 mi ESE 5.8 mph - N/A   Clear
5:35 AM 53.6 °F 35.6 °F 51% 29.99 in 10.0 mi ENE 4.6 mph - N/A   Clear
5:55 AM 57.2 °F 35.6 °F 44% 30.00 in 10.0 mi ESE 4.6 mph - N/A   Clear
6:15 AM 55.4 °F 37.4 °F 51% 30.00 in 10.0 mi Calm Calm - N/A   Clear
6:35 AM 55.4 °F 35.6 °F 47% 30.00 in 10.0 mi ESE 3.5 mph - N/A   Clear
6:55 AM 55.4 °F 35.6 °F 47% 30.01 in 10.0 mi Calm Calm - N/A   Clear
7:15 AM 55.4 °F 35.6 °F 47% 30.01 in 10.0 mi Calm Calm - N/A   Clear
7:35 AM 50.0 °F 37.4 °F 62% 30.02 in 10.0 mi Calm Calm - N/A   Clear
7:55 AM 57.2 °F 39.2 °F 51% 30.03 in 10.0 mi Calm Calm - N/A   Clear
8:15 AM 59.0 °F 39.2 °F 48% 30.04 in 10.0 mi Calm Calm - N/A   Clear
8:35 AM 62.6 °F 39.2 °F 42% 30.05 in 10.0 mi Calm Calm - N/A   Clear
8:55 AM 66.2 °F 35.6 °F 32% 30.05 in 10.0 mi Calm Calm - N/A   Clear
9:15 AM 68.0 °F 35.6 °F 30% 30.05 in 10.0 mi South 3.5 mph - N/A   Clear
9:35 AM 68.0 °F 37.4 °F 33% 30.06 in 10.0 mi South 3.5 mph - N/A   Clear
9:55 AM 71.6 °F 37.4 °F 29% 30.07 in 10.0 mi South 4.6 mph - N/A   Clear
10:15 AM 73.4 °F 35.6 °F 25% 30.07 in 10.0 mi South 5.8 mph - N/A   Clear
10:35 AM 73.4 °F 35.6 °F 25% 30.07 in 10.0 mi SSW 4.6 mph - N/A   Clear
10:55 AM 75.2 °F 33.8 °F 22% 30.07 in 10.0 mi West 3.5 mph - N/A   Clear
11:15 AM 77.0 °F 32.0 °F 19% 30.06 in 10.0 mi Calm Calm - N/A   Clear
11:35 AM 80.6 °F 32.0 °F 17% 30.06 in 10.0 mi North 4.6 mph - N/A   Clear
11:55 AM 80.6 °F 30.2 °F 16% 30.05 in 10.0 mi Calm Calm - N/A   Clear
12:15 PM 82.4 °F 32.0 °F 16% 30.05 in 10.0 mi North 3.5 mph - N/A   Clear
12:35 PM 84.2 °F 28.4 °F 13% 30.04 in 10.0 mi NNW 5.8 mph - N/A   Clear
12:55 PM 84.2 °F 28.4 °F 13% 30.03 in 10.0 mi West 4.6 mph - N/A   Clear
1:15 PM 86.0 °F 28.4 °F 12% 30.02 in 10.0 mi West 9.2 mph - N/A   Clear
1:35 PM 86.0 °F 30.2 °F 13% 30.01 in 10.0 mi WSW 4.6 mph - N/A   Clear
1:55 PM 86.0 °F 28.4 °F 12% 30.00 in 10.0 mi WNW 8.1 mph - N/A   Clear
2:15 PM 87.8 °F 28.4 °F 12% 30.00 in 10.0 mi West 10.4 mph - N/A   Clear
2:35 PM 89.6 °F 24.8 °F 10% 29.99 in 10.0 mi WNW 15.0 mph 18.4 mph N/A   Clear
2:55 PM 89.6 °F 24.8 °F 10% 29.99 in 10.0 mi NW 8.1 mph - N/A   Clear
3:15 PM 89.6 °F 24.8 °F 10% 29.98 in 10.0 mi WNW 10.4 mph 17.3 mph N/A   Clear
3:35 PM 89.6 °F 24.8 °F 10% 29.98 in 10.0 mi NW 10.4 mph 19.6 mph N/A   Clear
3:55 PM 89.6 °F 24.8 °F 10% 29.98 in 10.0 mi NNW 9.2 mph - N/A   Clear
4:15 PM 89.6 °F 24.8 °F 10% 29.98 in 10.0 mi NNW 10.4 mph - N/A   Clear
4:35 PM 89.6 °F 24.8 °F 10% 29.98 in 10.0 mi West 3.5 mph - N/A   Clear
4:55 PM 89.6 °F 24.8 °F 10% 29.98 in 10.0 mi NW 4.6 mph - N/A   Clear
5:15 PM 89.6 °F 24.8 °F 10% 29.98 in 10.0 mi WSW 3.5 mph - N/A   Clear
5:35 PM 89.6 °F 23.0 °F 9% 29.98 in 10.0 mi Calm Calm - N/A   Clear
10:55 PM 68.0 °F 28.4 °F 23% 30.06 in 10.0 mi SSE 5.8 mph - N/A   Clear
11:15 PM 68.0 °F 28.4 °F 23% 30.06 in 10.0 mi ESE 3.5 mph - N/A   Clear
11:35 PM 69.8 °F 28.4 °F 21% 30.07 in 10.0 mi Calm Calm - N/A   Clear
11:55 PM 68.0 °F 28.4 °F 23% 30.07 in 10.0 mi Calm Calm - N/A   Clear